Location: Mat�lon
(46.2791°N, 7.1028°E)
Time: 16:59:40
(UTC+00:00)

Cosmos 1833 Rocket - Pass Details

Date: 18 September 2020
Orbit: 831 x 841 km, 71.0° (Epoch: 30 October)

Event Time Altitude Azimuth Distance (km) Brightness Sun altitude
Rises 21:43:59 0° 328° (NNW) 3,406 6.8 -37.3°
Reaches altitude 10° 21:46:31 10° 323° (NW) 2,467 5.8 -37.6°
Enters shadow 21:49:20 28° 307° (NW) 1,535 4.4 -37.8°
